User: anonymous   Login
Location: Unspecified
(0.0000°N, 0.0000°E)
Time: 00:07:53
(UTC+00:00)
Language:

STARLINK-11213 [DTC] - Orbit

View from above orbital plane
View from above orbital plane
View from above satellite
View from above satellite

Ground track
Ground track

The orbit is defined by the following mean orbital elements,

1 60309U          26145.13319762 +.00000000 +00000-0 +18904-5 0 00008
2 60309  53.1586 129.1473 0000902  84.8863 275.2258 15.69707421    06
Epoch (UTC): 25 May 2026 03:11:48
Eccentricity: 0.0000902
inclination: 53.1586°
perigee height: 359 km
apogee height: 360 km
right ascension of ascending node: 129.1473°
argument of perigee: 84.8863°
revolutions per day: 15.69707421
mean anomaly at epoch: 275.2258°

The dashed part of the orbit path shows where the satellite is in the earth's shadow,  

DLR